Airport View

Enter AWOS ICAO identifier for current METAR.

ex. KFNL

KRZL 171310Z AUTO 00000KT 7SM CLR M05/M05 A3011 RMK AO2

17 Nov 2019 13:17

Frequency: 119.175

Phone: 219-866-7167

Other Area AWOS: KMCX - KIKK - KVPZ - KOXI

TAF KLAF 171120Z 1712/1812 VRB03KT P6SM SCT100 BKN200 FM180600 00000KT P6SM BKN090 FM180900 VRB03KT P6SM OVC020 AMD LTD TO CLD VIS AND WIND TIL 171400